Location: City of Moscow
(46.7306°N, 116.9989°W)
Time: 02:22:58
(UTC+00:00)

ACS3 Solar Sail - Pass Details

Date: 20 February 2026
Orbit: 889 x 972 km, 97.2° (Epoch: 6 March)

Event Time Altitude Azimuth Distance (km) Brightness Sun altitude
Rises 10:44:50 0° 5° (N) 3,516 5.1 -40.3°
Reaches altitude 10° 10:47:23 10° 358° (N) 2,568 4.3 -39.9°
Enters shadow 10:47:35 11° 357° (N) 2,496 4.2 -39.9°
